Regional Weather Roundup
Issued by NWS Sterling, VA

Home | Current Version | Previous Version | Text Only | Print | Product List | Glossary Off
Versions: 1 2 3 4 5 6 7 8 9 10 11 12 13 14 15 16 17 18 19 20 21 22 23 24 25 26 27 28 29 30 31 32 33 34 35 36 37 38 39 40 41 42 43 44 45 46 47 48 49 50

000
ASUS41 KLWX 011510
RWRLWX

REGIONAL WEATHER ROUNDUP
NATIONAL WEATHER SERVICE BALTIMORE MD/WASHINGTON DC
1100 AM EDT TUE SEP 01 2015

Note: "FAIR" indicates few or no clouds below 12,000 feet
with no significant weather and/or obstructions to visibility.
 TC=TEMPERATURE CELSIUS

 * =Non NWS site. Station does not report precipitation (e.g. rain,
    snow, etc.), thunder, or fog.

DCZ001-MDZ009-015-VAZ040>042-051-053>054-011600-
WASHINGTON METRO

CITY           SKY/WX    TMP DP  RH WIND       PRES   REMARKS
WASHINGTON NAT MOSUNNY   88  69  53 N3        30.08S HX  92
DULLES         MOSUNNY   86  67  52 N8        30.10R
ANDREWS AFB    SUNNY     86  69  55 N7        30.08R HX  90
FT BELVOIR     SUNNY     88  69  53 VRB2      30.08R HX  93
QUANTICO       MOSUNNY   79  70  74 S6        30.10R
COLLEGE PARK*  SUNNY     86  68  54 NE5       30.07S
LEESBURG*      SUNNY     86  72  62 N5        30.11S HX  92
MANASSAS*      SUNNY     86  70  58 N8        30.09S HX  90
GAITHERSBURG*  SUNNY     84  68  58 NE3       30.13S

$$

MDZ006>007-011-014-011600-
BALTIMORE METRO

CITY           SKY/WX    TMP DP  RH WIND       PRES   REMARKS
BWI AIRPORT    MOSUNNY   87  66  49 N6        30.07S
MD SCIENCE CTR   N/A     86  67  52 MISG      30.07S
MARTIN STATE   SUNNY     84  73  70 N7        30.08S HX  91
ANNAPOLIS      SUNNY     83  70  64 NE7       30.07S
FORT MEADE*    SUNNY     86  68  54 NE7       30.10S

$$

MDZ012-015-019>023-011600-
MARYLAND EASTERN SHORE

CITY           SKY/WX    TMP DP  RH WIND       PRES   REMARKS
OCEAN CITY     SUNNY     82  72  71 S6        30.07R
SALISBURY      SUNNY     83  71  67 VRB6      30.07R
BAY BRIDGE AP*   N/A     79  70  73 NW5       30.08R
CAMBRIDGE*     SUNNY     84  72  65 N5        30.07S
EASTON*        SUNNY     84  73  70 VRB5      30.11R HX  91

$$

MDZ017>025-011600-
SOUTHERN MARYLAND

CITY           SKY/WX    TMP DP  RH WIND       PRES   REMARKS
PATUXENT RIVER PTSUNNY   83  68  60 VRB5      30.08R
ST INIGOES     SUNNY     77  72  84 MISG      30.08R
LEONARDTOWN*   NOT AVBL

$$

MDZ003>005-011600-
NORTH CENTRAL MARYLAND

CITY           SKY/WX    TMP DP  RH WIND       PRES   REMARKS
FREDERICK*     SUNNY     88  70  55 NE3       30.12S HX  92
HAGERSTOWN APT SUNNY     84  66  54 W5        30.12S
WESTMINSTER*   SUNNY     84  68  58 N6        30.11S

$$

MDZ501>502-011600-
WESTERN MARYLAND

CITY           SKY/WX    TMP DP  RH WIND       PRES   REMARKS
OAKLAND*       MOSUNNY   72  63  73 W6        30.25S
CUMBERLAND*    SUNNY     81  68  65 CALM      30.18S

$$

VAZ025>031-011600-
SHENANDOAH VALLEY

CITY           SKY/WX    TMP DP  RH WIND       PRES   REMARKS
WINCHESTER*    SUNNY     86  64  48 NW3       30.13S
FRONT ROYAL*   FAIR      82  64  54 NW5       30.12F
LURAY*         FAIR      82  63  51 CALM      30.14S
NEW MARKET*    FAIR      82  65  57 CALM      30.13S
STAUNTON*      SUNNY     84  64  51 N3        30.18S
WAYNESBORO*    FAIR      82  65  56 NE6       30.18S

$$

WVZ021-048>050-054>055-011600-
EASTERN WEST VIRGINIA PANHANDLE

CITY           SKY/WX    TMP DP  RH WIND       PRES   REMARKS
MARTINSBURG    SUNNY    N/A N/A N/A VRB7        N/A
PETERSBURG*    SUNNY     81  67  63 CALM      30.16F

$$

VAZ036>039-050-011600-
CENTRAL FOOTHILLS

CITY           SKY/WX    TMP DP  RH WIND       PRES   REMARKS
CHARLOTTESVILL SUNNY     86  67  52 CALM      30.12R
CULPEPER*      SUNNY     83  70  62 N7        30.11S
ORANGE*        SUNNY     86  68  54 NW7       30.12S
GORDONSVILLE*  FAIR      85  68  56 N6        30.11R
WARRENTON*     FAIR      87  71  58 NW6       30.10S HX  92

$$

VAZ055>057-011600-
NORTH AND CENTRAL PIEDMONT

CITY           SKY/WX    TMP DP  RH WIND       PRES   REMARKS
FREDERICKSBRG* SUNNY     86  71  60 CALM      30.09R HX  91
STAFFORD*      SUNNY     85  68  56 N5        30.13S

$$

NCZ024-NYZ072-PAZ021-071-VAZ022-071-011600-
OTHER REGIONAL OBSERVATIONS

CITY           SKY/WX    TMP DP  RH WIND       PRES   REMARKS
NEW YORK CITY  SUNNY     83  63  50 E5        30.09R
PHILADELPHIA   SUNNY     88  65  46 E9        30.06S HX  90
PITTSBURGH     MOSUNNY   81  67  62 W5        30.16R
ROANOKE        SUNNY     82  65  56 CALM      30.18S
RICHMOND       PTSUNNY   82  69  64 CALM      30.10R
RALEIGH        MOSUNNY   83  70  64 CALM      30.12S

$$

ANZ530>537-011600-
MARINE OBSERVATIONS

STATION/POSITION TIME  TEMP    WIND        PRES
                       AIR SEA DIR/SP/G
                 (UTC) (F)     (DEG/KT/KT) (MB)
THOMAS PT LIGHT  NOT AVBL
BALT KEY BRIDGE  1400   81     100/  3/  4 1018.2R
COVE POINT       1400   76      40/  1/  3 1019.0R
LEWISETTA        1400   74 79  280/  3/  4 1018.3R
SOLOMONS ISLAND  1400      80                N/A
PINEY POINT      1405          270/  3/  5   N/A

$$




USA.gov is the U.S. government's official web portal to all federal, state and local government web resources and services.